SCP
1 1 1 1 1 1 1 0 0 0 0 0 0 0 0 0 0 0 0 0 0 0 0 0 0 0 0 0 0 0 0 0 0 0 0 0 0 0 0 0 0 0 0
1 1 1 1 1 1 1 0 0 0 0 0 0 0 0 0 0 0 0 0 0 0 0 0 0 0 0 0 0 0 0 0 0 0 0 0 0 0 0 0 0 0 0
1 1 1 1 1 1 1 1 1 0 0 0 0 0 0 0 0 0 0 0 0 0 0 0 0 0 0 0 0 0 0 0 0 0 0 0 0 0 0 0 0 0 0
1 1 1 1 1 1 1 1 1 1 1 0 0 0 0 0 0 0 0 0 0 0 0 0 0 0 0 0 0 0 0 0 0 0 0 0 0 0 0 0 0 0 0
1 1 1 1 1 1 1 1 1 1 1 1 1 0 0 0 0 0 0 0 0 0 0 0 0 0 0 0 0 0 0 0 0 0 0 0 0 0 0 0 0 0 0
1 1 1 1 1 1 1 1 1 1 1 1 1 0 0 0 0 0 0 0 0 0 0 0 0 0 0 0 0 0 0 0 0 0 0 0 0 0 0 0 0 0 0
1 1 1 1 1 1 1 1 1 1 1 1 1 1 0 0 0 0 0 0 0 0 0 0 0 0 0 0 0 0 0 0 0 0 0 0 0 0 0 0 0 0 0
1 1 1 1 1 1 1 1 1 1 1 1 1 1 1 0 0 0 0 0 0 0 0 0 0 0 0 0 0 0 0 0 0 0 0 0 0 0 0 0 0 0 0
1 1 1 1 1 1 1 1 1 1 1 1 1 1 1 1 0 0 0 0 0 0 0 0 0 0 0 0 0 0 0 0 0 0 0 0 0 0 0 0 0 0 0
1 1 1 1 1 1 1 1 1 1 1 1 1 1 1 1 1 0 0 0 0 0 0 0 0 0 0 0 0 0 0 0 0 0 0 0 0 0 0 0 0 0 0
1 1 1 1 1 1 1 1 1 1 1 1 1 1 1 1 0 0 0 0 0 0 0 0 0 0 0 0 0 0 0 0 0 0 0 0 0 0 0 0 0 0 0
1 1 1 1 1 1 1 1 1 1 1 1 1 1 1 0 0 0 0 0 0 0 0 0 0 0 0 0 0 0 0 0 0 0 0 0 0 0 0 0 0 0 0
1 1 1 1 1 1 1 1 1 1 1 1 1 1 0 0 0 0 0 0 0 0 0 0 0 0 0 0 0 0 0 0 0 0 0 0 0 0 0 0 0 0 0
1 1 1 1 1 1 1 1 1 1 1 1 1 1 0 0 0 0 0 0 0 0 0 0 0 0 0 0 0 0 0 0 0 0 0 0 0 0 0 0 0 0 0
1 1 1 1 1 1 1 1 1 1 1 1 1 0 0 0 0 0 0 0 0 0 0 0 0 0 0 0 0 0 0 0 0 0 0 0 0 0 0 0 0 0 0
1 1 1 1 1 1 1 1 1 1 1 0 0 0 0 0 0 0 0 0 0 0 0 0 0 0 0 0 0 0 0 0 0 0 0 0 0 0 0 0 0 0 0
1 1 1 1 1 1 1 1 1 1 1 0 0 0 0 0 0 0 0 0 0 0 0 0 0 0 0 0 0 0 0 0 0 0 0 0 0 0 0 0 0 0 0
1 1 1 1 1 1 1 1 1 1 1 0 0 0 0 0 0 0 0 0 0 0 0 0 0 0 0 0 0 0 0 0 0 0 0 0 0 0 0 0 0 0 0
0 1 1 1 1 1 1 1 1 1 1 1 0 0 0 0 0 0 0 0 0 0 0 0 0 0 0 0 0 0 0 0 0 0 0 0 0 0 0 0 0 0 0
0 0 0 1 1 1 1 1 1 1 1 1 1 1 0 0 0 0 0 0 0 0 0 0 0 0 0 0 0 0 0 0 0 0 0 0 0 0 0 0 0 0 0
0 0 0 0 0 1 1 1 1 1 1 1 1 1 0 0 0 0 0 0 0 0 0 0 0 0 0 0 0 0 0 0 0 0 0 0 0 0 0 0 0 0 0
0 0 0 0 0 0 0 0 0 0 0 1 1 1 0 0 0 0 0 0 0 0 0 0 0 0 0 0 0 0 0 0 0 0 0 0 0 0 0 0 0 0 0
0 0 0 0 0 0 0 0 0 0 0 1 1 1 0 0 0 0 0 0 0 0 0 0 0 0 0 0 0 0 0 0 0 0 0 0 0 0 0 0 0 0 0
0 0 0 0 0 0 0 0 0 0 0 0 1 0 0 0 0 0 0 0 0 0 0 0 0 0 0 0 0 0 0 0 0 0 0 0 0 0 0 0 0 0 0
0 0 0 0 0 0 0 0 0 0 0 0 0 0 0 0 0 0 0 0 0 0 0 0 0 0 0 0 0 0 0 0 0 0 0 0 0 0 0 0 0 0 0
0 0 0 0 0 0 0 0 0 0 0 0 0 0 1 0 0 0 0 0 0 0 0 0 0 0 0 0 0 0 0 0 0 0 0 0 0 0 0 0 0 0 0
Wind_Speed
6 6 6 7 8 7 7 6 5 4 4 3 3 2 2 1 1 2 3 3 3 4 3 2 2 2 2 2 2 1 1 0 0 1 2 2 1 1 1 2 2 2 3
6 7 7 6 7 8 8 7 7 6 5 3 3 2 2 2 2 1 2 2 3 3 3 3 2 2 2 1 2 2 1 0 1 2 1 2 3 3 1 1 2 3 2
10 8 7 7 7 7 8 7 6 6 5 4 3 2 2 1 1 0 1 2 2 3 2 3 2 2 2 2 2 2 3 1 1 1 3 2 2 2 2 1 2 2 2
8 8 7 7 8 7 6 6 6 6 5 5 4 4 3 2 2 2 1 1 2 2 2 2 2 2 2 2 2 2 2 3 1 1 1 2 3 2 2 3 2 2 2
9 9 9 9 8 7 6 5 6 6 5 5 5 4 3 2 1 1 1 1 1 1 2 2 2 2 2 2 2 2 2 2 2 2 1 0 0 1 2 2 2 2 2
8 8 7 7 6 6 6 5 5 5 5 5 4 5 4 3 3 2 2 1 0 0 0 1 2 2 2 2 3 2 2 2 2 2 2 2 1 2 2 2 2 2 2
7 7 6 7 7 7 6 5 5 5 5 5 5 5 4 4 4 3 3 2 1 1 1 1 1 1 1 2 2 2 2 2 2 2 2 2 2 2 2 2 2 1 2
7 8 8 8 8 7 7 6 5 4 5 5 4 3 4 3 2 3 3 3 2 2 2 2 1 1 1 2 2 2 2 1 1 1 1 1 1 1 2 2 2 1 1
8 8 7 7 7 8 7 7 6 5 4 4 4 3 2 2 2 2 2 2 2 2 1 2 1 1 1 1 2 1 2 1 1 1 1 1 1 1 1 1 2 3 2
7 7 7 7 7 8 7 7 6 5 3 3 3 3 2 2 2 2 2 2 1 1 2 1 1 1 1 1 1 1 1 1 1 1 1 1 1 1 1 1 1 2 3
7 7 6 6 6 6 6 6 5 4 4 3 2 2 2 1 2 2 2 2 1 1 1 2 1 1 1 1 1 1 1 1 2 1 2 2 2 1 1 1 0 1 2
6 7 7 6 6 5 5 5 4 4 4 3 3 3 2 2 2 1 0 1 2 1 1 1 1 1 1 1 1 1 1 2 2 2 2 3 2 1 1 1 1 1 2
6 6 6 6 6 5 5 4 4 4 4 4 4 3 2 2 1 1 1 1 1 1 1 1 1 0 0 1 1 2 2 2 3 3 3 3 3 2 2 2 1 1 1
7 7 6 6 5 5 4 5 4 4 5 4 4 3 2 2 1 1 1 1 1 1 1 1 1 0 1 1 1 1 2 2 3 3 3 3 3 3 3 2 2 1 1
6 6 6 5 5 5 4 4 4 4 5 5 4 3 2 1 1 1 1 1 1 1 0 1 1 0 0 1 1 1 1 2 2 2 3 3 2 3 3 2 2 2 1
5 5 6 6 6 6 5 5 5 5 5 5 3 2 2 2 2 1 1 1 1 1 1 1 1 1 1 2 2 1 1 2 2 3 3 3 2 3 3 3 3 4 4
5 5 5 5 5 5 5 5 5 5 5 4 3 3 2 2 2 1 1 1 0 1 1 0 0 0 2 2 2 2 2 2 2 2 2 2 2 2 2 2 2 2 3
5 5 5 4 3 3 4 4 5 5 5 4 3 3 3 2 1 1 1 0 0 1 0 1 1 1 2 2 2 2 1 2 2 2 2 2 2 1 1 1 1 1 2
5 5 5 5 5 4 5 6 5 4 4 4 3 3 3 3 2 1 1 0 0 0 1 1 1 1 2 2 2 1 1 1 2 2 1 1 2 2 1 1 1 2 3
4 4 4 4 5 4 5 6 5 4 3 3 3 3 3 3 2 2 1 1 1 1 1 1 2 2 2 2 2 1 0 1 2 2 2 1 1 1 1 2 2 2 3
5 5 5 4 3 4 5 5 4 3 3 3 3 3 2 2 2 1 1 0 1 1 1 2 2 2 3 3 3 2 1 1 1 1 2 2 3 2 2 2 2 4 3
5 5 5 3 2 3 5 5 3 3 2 3 2 2 2 2 1 1 1 1 0 1 2 2 3 2 2 2 3 3 3 1 1 2 2 3 4 3 2 1 2 3 2
4 3 4 4 2 3 4 4 3 3 3 3 2 1 1 0 1 1 1 1 0 0 1 1 2 2 2 2 3 3 2 2 1 2 3 3 3 2 2 3 2 1 1
4 3 4 4 2 2 3 3 3 3 3 3 1 1 1 0 1 1 1 1 1 1 1 1 2 2 2 1 1 1 1 1 1 2 3 2 2 2 2 2 2 1 1
3 4 5 4 3 2 2 2 2 3 3 2 2 1 1 1 1 1 2 2 3 4 3 3 2 2 2 3 3 2 1 1 1 0 1 2 1 1 2 2 2 1 1
4 4 4 4 3 3 2 1 2 3 4 2 2 1 1 1 1 1 2 3 3 4 4 5 4 3 4 4 4 3 3 3 2 1 0 1 1 2 2 2 2 2 2
Wind_Direction
165 158 159 160 153 149 147 152 146 157 155 155 146 142 154 154 149 166 172 168 165 157 154 167 174 160 161 178 165 144 109 39 63 59 353 337 320 235 203 190 185 198 199
154 161 157 152 159 159 161 161 159 162 169 169 160 154 153 159 169 163 163 172 168 163 162 166 178 175 160 161 158 143 132 256 115 123 89 355 341 328 255 212 204 212 201
165 167 164 160 156 164 170 167 163 160 162 151 126 112 90 75 83 153 195 204 178 168 167 172 171 177 170 181 190 173 159 181 255 158 145 151 235 298 315 263 221 210 201
166 168 166 166 167 169 167 159 157 155 155 147 144 144 149 166 190 191 193 207 194 175 172 170 176 178 171 176 193 175 166 162 201 256 193 183 174 172 300 317 295 238 213
167 168 171 173 170 161 155 153 149 148 148 151 157 155 162 174 158 159 167 200 223 186 176 162 160 169 176 179 176 166 171 172 182 191 194 193 140 155 162 267 302 308 263
166 166 163 157 154 154 151 145 150 153 149 148 152 164 163 160 149 166 182 196 217 247 154 149 156 168 178 183 182 176 177 181 182 189 180 171 173 195 176 206 244 264 271
158 151 144 145 146 148 147 151 156 157 157 158 166 173 166 166 174 184 185 181 192 214 221 173 167 175 190 183 157 153 174 176 177 198 207 199 205 189 174 173 214 245 277
154 153 159 155 149 147 147 153 159 160 164 167 177 174 168 169 181 181 180 186 195 205 205 185 176 178 173 176 154 156 185 173 189 213 213 213 236 204 182 174 166 191 301
155 153 153 154 150 153 158 158 158 157 164 162 167 167 170 170 173 179 185 185 185 179 165 167 166 172 152 158 159 173 192 185 201 224 222 217 255 247 217 176 165 165 195
148 148 152 158 158 159 159 157 154 154 152 151 160 163 174 172 167 163 175 179 178 156 138 141 165 158 141 132 154 183 191 169 210 208 206 241 257 274 262 206 183 169 174
150 150 152 151 151 149 151 154 150 144 141 138 130 121 135 148 145 152 171 163 145 153 159 164 164 158 156 157 155 208 198 194 226 235 223 247 244 248 280 268 208 175 157
143 141 136 131 132 141 148 153 156 157 157 149 129 116 103 89 87 98 129 127 123 123 125 123 135 169 175 164 165 222 240 220 230 239 232 245 244 245 251 249 246 225 190
135 137 134 135 137 136 141 149 155 158 149 135 126 117 117 116 115 117 96 86 96 89 84 97 112 147 193 192 202 219 232 238 241 235 228 235 224 236 245 243 240 237 213
142 144 143 145 142 143 145 142 143 147 144 137 140 139 149 161 171 150 114 98 92 98 119 124 150 181 228 222 240 233 251 259 263 258 242 233 217 222 227 232 232 213 166
138 148 152 151 145 142 143 138 135 135 141 138 143 151 160 158 129 113 138 130 116 124 126 85 48 23 157 292 299 264 265 275 280 285 272 253 227 214 209 216 210 194 178
144 152 159 158 157 154 151 139 142 141 131 129 136 134 132 130 127 120 114 101 75 66 67 62 70 51 337 333 331 331 296 273 258 264 275 271 244 241 241 235 217 198 190
148 162 160 162 158 156 151 149 152 143 136 138 140 136 135 128 142 143 99 119 125 88 66 14 61 273 301 306 310 314 276 264 261 256 259 277 286 247 256 267 274 265 232
149 157 152 146 141 145 138 132 133 135 137 140 144 146 140 133 128 109 102 71 109 132 225 257 231 236 294 305 322 329 286 266 271 262 241 233 266 269 225 241 294 290 271
150 153 149 145 134 132 134 125 125 129 129 142 157 160 146 135 131 135 186 215 154 316 271 247 221 225 267 273 301 337 317 298 302 296 273 243 243 255 201 177 241 301 302
124 126 128 126 134 143 132 124 132 139 154 170 170 164 155 153 166 186 208 225 205 234 263 275 249 231 248 259 259 246 222 303 310 315 309 282 286 290 167 178 190 244 273
125 121 121 124 144 145 129 125 130 158 181 166 159 161 158 162 171 178 210 228 261 281 292 298 288 262 251 249 239 213 181 231 268 283 289 293 291 279 221 195 202 228 243
124 127 130 130 136 134 137 137 156 185 159 139 145 158 165 181 166 164 258 282 312 315 304 309 310 299 278 249 246 231 218 217 223 256 263 271 284 281 265 233 251 253 244
133 137 141 141 152 146 142 158 184 167 138 130 147 164 161 191 176 187 230 287 331 277 291 282 288 297 302 276 263 248 243 250 246 268 283 288 285 287 290 280 279 264 243
146 147 141 146 173 169 152 173 181 155 136 139 155 170 158 248 275 237 220 212 226 232 253 252 260 275 289 288 291 291 288 285 291 305 314 314 315 327 308 307 295 257 228
154 155 160 168 176 166 167 174 165 150 143 152 172 194 205 214 245 259 244 228 229 215 213 231 231 235 268 263 251 238 245 238 243 306 3 2 2 349 327 316 303 289 275
156 152 158 161 169 170 178 188 167 160 161 168 182 190 202 228 239 257 296 289 252 252 242 234 231 246 247 254 258 262 256 247 209 125 57 286 275 263 271 276 279 274 266